Regional Weather Roundup
Issued by NWS Newport/Morehead, NC

Current Version | Previous Version | Text Only | Print | Product List | Glossary On
Versions: 1 2 3 4 5 6 7 8 9 10 11 12 13 14 15 16 17 18 19 20 21 22 23 24 25 26 27 28 29 30 31 32 33 34 35 36 37 38 39 40 41 42 43 44 45 46 47 48 49 50
000
ASUS42 KMHX 301610
RWRMHX
WEATHER ROUNDUP FOR EASTERN NORTH CAROLINA
NATIONAL WEATHER SERVICE NEWPORT/MOREHEAD CITY NC
1200 PM EDT SAT AUG 30 2014

NOTE: "FAIR" INDICATES FEW OR NO CLOUDS BELOW 12,000 FEET
WITH NO SIGNIFICANT WEATHER AND/OR OBSTRUCTIONS TO VISIBILITY

NCZ015>017-031-032-045>047-102-103-301700-
NORTH COAST

CITY           SKY/WX    TMP DP  RH WIND       PRES   REMARKS
EDENTON        MOSUNNY   82  72  71 CALM      30.22F
ELIZABETH CITY MOSUNNY   82  73  74 E12       30.23F
KITTY HAWK     CLOUDY    80  73  78 E5        30.22S
MANTEO         CLOUDY    81  73  76 E6        30.23S

$$

NCZ045>047-081-094-103-104-301700-
CENTRAL COAST

CITY           SKY/WX    TMP DP  RH WIND       PRES   REMARKS
FRISCO         NOT AVBL
SWANQUARTER      N/A     86 N/A N/A S8        30.18S

$$

NCZ095-097-098-100-101-301700-
SOUTHERN COAST

CITY           SKY/WX    TMP DP  RH WIND       PRES   REMARKS
BEAUFORT       PTSUNNY   83  75  77 S7        30.22S
CEDAR ISLAND     N/A     84 N/A N/A E5        30.27S
JACKSONVILLE   SUNNY     85  73  67 VRB3      30.21S
NEWPORT        NOT AVBL
PINEY ISLAND   MOSUNNY   85  75  72 NE8       30.22S
WILMINGTON     CLOUDY    83  73  72 N5        30.21S


$$

NCZ011>013-027>030-043-044-078>080-089-090>093-098-301700-
COASTAL PLAIN

CITY           SKY/WX    TMP DP  RH WIND       PRES   REMARKS
AHOSKIE        MOSUNNY   81  71  72 CALM      30.22F
CLINTON        MOSUNNY   86  74  67 CALM      30.21F
ELIZABETHTOWN  MOSUNNY   87  71  59 CALM      30.20F
GOLDSBORO      SUNNY     86  73  63 VRB6      30.20S
GREENVILLE     SUNNY     84  72  65 N3        30.23S
HAVELOCK       PTSUNNY   87  70  56 VRB3      30.23S
KENANSVILLE    SUNNY     85  69  60 CALM      30.23S
KINSTON        SUNNY     84  72  65 CALM      30.22F
NEW BERN       MOSUNNY   86  71  60 CALM      30.22F
RICHLANDS      PTSUNNY   84  72  65 CALM      30.21S
ROANOKE RAPIDS NOT AVBL
ROCKY MOUNT    MOSUNNY   83  72  69 VRB3      30.22F
WASHINGTON     SUNNY     83  73  71 S3        30.22F
WHITEVILLE     MOSUNNY   86  73  65 E5        30.20S

$$

AMZ130-135-150-152-154-156-158-170-250-252-270-ANZ085-086-088-633-658-670-301700-
MARINE OBSERVATIONS

STATION/POSITION TIME  TEMP    WIND        PRES    WAVE   SWELL
                       AIR SEA DIR/SP/G            HT/PER HT/PER
                 (UTC) (F)     (DEG/KT/KT) (MB)    (FT/S) (FT/S)
CHESAPEAKE LIGHT 1500   76     110/ 12/ 13 1024.8
BUOY 44014       1600   77 78   90/ 10/ 12 1023.7    3/ 8   3/ 8
DUCK             1600   78 78   90/ 11/ 12 1023.1
2E DUCK          1600                        N/A     3/ 8
OREGON INLET     1600   79 78   90/  7/ 10 1023.4
BUOY 44095       1600      77                N/A     3/ 7
20E OREGON INLET NOT AVBL
HATTERAS CG      1600   83 81  150/  4/  6 1024.1
DIAMOND BUOY     1600   80     150/  8/ 10 1023.2    3/ 7   3/ 7
CAPE LOOKOUT     1500   81     110/  5/  6 1023.5
BEAUFORT LAB     1600   79 81  190/  9/ 11 1022.9
30 SE NEW RIVER  1500   80 83   70/  6/  8 1023.6
5 SE WRIGHTSVILL 1600   79 82  130/ 10/ 12   N/A
BUOY 41002       1537   81 83  100/  2/  4 1023.7    4/ 8   3/ 8
BUOY 41004       1600   82 83   70/  8/ 10 1021.7    3/ 8   2/ 8

$$



USA.gov is the U.S. government's official web portal to all federal, state and local government web resources and services.